www.pogodaiklimat.ru

Погода и климат >> Архив погоды >> Мадагаскар >> Toamasina


ПОГОДА в Toamasina

  • Прогноз погоды в Toamasina
  • Монитор погоды в Toamasina
  • Климат города

АРХИВ ПОГОДЫ в Toamasina

Время (UTC), дата Ветер
(напр.,м/с)
 
Видим.   Явления Облачность Т
(С)
Тd
(С)
f
(%)
Тe
(С)
Тes
(С)
Комфортность P
(гПа)
Po
(гПа)
Тmin
(С)
Tmax
(С)
R
(мм)
R24
(мм)
S
(см)
09 12.10 ЮВ 5 20 км осадки на расстоянии 5/5 500 м
[Cu Sc]
+27.8 +20.9 66 +35 +40 очень
душно
1019.1 1018.4
12 12.10 ЮВ 5 35 км 3/3 500 м
[Cu Sc]
+27.0 +20.7 68 +34 +37 очень
душно
1017.0 1016.4
15 12.10 В 3 25 км 6/6 500 м
[Cu Sc]
+24.2 +20.1 78 +30 +30 очень
душно
1017.2 1016.5 +28.0
18 12.10 С 2 25 км 6/6 300 м
[Cu Sc]
+24.0 +19.8 77 +29 +29 душно 1018.8 1018.1 +28.0
21 12.10 штиль 0 25 км 6/5 300 м
[Cu Sc]
+22.3 +20.3 88 +29 +29 очень
душно
1019.0 1018.4 +28.0
00 13.10 штиль 0 8000 м слабый дождь 9/9 500 м
[Cu Sc]
+21.4 +20.8 96 +27 +27 душно 1017.7 1017.0 0.0
03 13.10 СЗ 2 15 км осадки на расстоянии {дождь} 9/9 500 м
[Cu Sc]
+21.0 +20.2 95 +27 +27 душно 1018.3 1017.6 0.0
09 13.10 В 4 35 км 3/3 500 м
[Cu Sc]
+26.5 +20.6 70 +33 +43 очень
душно
1017.5 1016.9
12 13.10 В 5 30 км 1/1 500 м
[Cu Sc]
+26.7 +20.3 68 +33 +37 очень
душно
1015.5 1014.8
15 13.10 В 4 25 км 6/6 500 м
[Cu Sc]
+25.0 +20.8 78 +31 +31 очень
душно
1016.5 1015.9 +27.5
18 13.10 В 4 25 км 6/6 500 м
[Cu Sc]
+24.4 +20.8 80 +30 +30 очень
душно
1018.8 1018.1 +27.5
21 13.10 штиль 0 20 км 8/8 500 м
[Cu Sc]
+23.8 +20.9 84 +30 +30 очень
душно
1017.9 1017.2
00 14.10 штиль 0 15 км 8/8 500 м
[Cu Sc]
+21.5 +20.7 95 +27 +27 душно 1016.7 1016.1 0.1
03 14.10 штиль 0 25 км {дождь} 8/8 500 м
[Cu Sc Ac trans]
+21.6 +21.1 97 +28 +28 очень
душно
1017.5 1016.8 0.3
06 14.10 ЮВ 2 20 км осадки на расстоянии {дождь} 8/5 500 м
[Cu Sc Ac trans]
+26.6 +21.2 72 +34 +38 очень
душно
1018.6 1018.0 +20.8 +27.5 0.3
09 14.10 ЮВ 5 15 км осадки на расстоянии {дождь} 9/9 210 м
[Cu Sc]
+25.7 +21.2 76 +32 +34 очень
душно
1017.1 1016.5 0.2
12 14.10 ЮВ 5 30 км 9/9 500 м
[Cu Sc]
+26.2 +20.5 71 +33 +33 очень
душно
1016.3 1015.6 0.2
15 14.10 В 4 15 км осадки на расстоянии 9/9 500 м
[Cu Sc]
+25.0 +19.8 73 +31 +31 очень
душно
1017.1 1016.5 +28.0
18 14.10 С 3 15 км 6/6 500 м
[Cu Sc]
+24.5 +20.5 78 +30 +30 очень
душно
1017.7 1017.0 +28.0 0.2
21 14.10 штиль 0 15 км осадки на расстоянии 9/9 500 м
[Cu Sc]
+22.5 +21.0 91 +29 +29 очень
душно
1016.8 1016.1
00 15.10 штиль 0 15 км осадки на расстоянии 8/8 500 м
[Cu Sc]
+21.6 +20.4 93 +27 +27 душно 1016.1 1015.5
03 15.10 штиль 0 15 км осадки на расстоянии 9/9 210 м
[Cu Sc]
+21.7 +20.9 95 +28 +28 душно 1017.3 1016.6
06 15.10 ЮВ 2 30 км 9/9 500 м
[Cu Sc]
+24.4 +20.0 76 +30 +31 очень
душно
1018.7 1018.0 +20.8 +28.0 0.2
09 15.10 ЮВ 5 35 км 5/4 500 м
[Cu Sc Ac trans]
+28.0 +20.5 64 +35 +41 очень
душно
1017.3 1016.7
12 15.10 В 5 35 км 1/1 500 м
[Cu Sc Ac trans]
+27.6 +20.7 66 +34 +39 очень
душно
1015.7 1015.0
15 15.10 С 4 25 км 5/3 500 м
[Cu Sc Ac trans Ci sp]
+25.2 +21.3 79 +32 +32 очень
душно
1016.4 1015.7 +29.2
18 15.10 С 3 15 км осадки на расстоянии 9/9 500 м
[Cu Sc]
+23.5 +21.2 87 +30 +30 очень
душно
1017.6 1016.9 +29.2
21 15.10 С 2 10 км в посл. час дождь 9/9 210 м
[Cu Sc]
+22.6 +22.1 97 +30 +30 очень
душно
1017.1 1016.4 2
00 16.10 СЗ 2 10 км осадки на расстоянии {дождь} 9/9 210 м
[Cu Sc]
+22.3 +21.4 95 +29 +29 очень
душно
1016.6 1015.9 2
03 16.10 СЗ 1 25 км 9/5 500 м
[Cu Sc Ac trans]
+22.3 +21.4 95 +29 +29 очень
душно
1017.3 1016.7 2
06 16.10 С 4 20 км осадки на расстоянии 9/9 500 м
[Cu Sc]
+25.1 +22.3 84 +33 +34 очень
душно
1018.1 1017.5 +21.3 +29.2 2
09 16.10 В 6 35 км 5/5 500 м
[Cu Sc Ac trans]
+27.5 +22.0 72 +36 +40 очень
душно
1016.3 1015.7
12 16.10 В 7 30 км 3/1 500 м
[Cu Sc Ci sp]
+26.8 +21.1 71 +34 +36 очень
душно
1014.3 1013.7
15 16.10 ЮЗ 6 25 км 5/3 500 м
[Cu Sc Ac trans Ci sp]
+25.0 +21.6 81 +32 +32 очень
душно
1015.1 1014.5 +27.8
18 16.10 ЮЗ 2 15 км гроза без осадков 9/9 500 м
[Cb cap]
+24.0 +21.6 86 +31 +31 очень
душно
1018.3 1017.7 +27.8
21 16.10 С 6 7000 м гроза, ливневой дождь 10/10 210 м
[Cb cap]
+21.0 +20.4 96 +26 +26 душно 1014.6 1013.9 10
00 17.10 штиль 0 15 км осадки на расстоянии {гроза, дождь} 9/9 210 м
[Cu Sc]
+20.7 +19.9 95 +25 +25 комфорт 1013.5 1012.9 10
03 17.10 штиль 0 25 км 8/3 500 м
[Cu Sc Ac trans Ci sp]
+21.5 +20.6 95 +27 +27 душно 1014.1 1013.5 10
06 17.10 С 4 30 км 5/5 500 м
[Cu Sc Ci sp]
+26.2 +21.3 74 +33 +37 очень
душно
1016.2 1015.5 +20.4 +27.8 10
09 17.10 С 7 30 км 4/4 500 м
[Cu Sc]
+27.5 +23.1 77 +37 +40 очень
душно
1014.5 1013.6
12 17.10 С 7 15 км осадки на расстоянии 8/5 500 м
[Cb cap Ac und Ci ing]
+25.8 +22.1 80 +33 +34 очень
душно
1012.2 1011.6
15 17.10 С 5 25 км 5/5 500 м
[Cb cap]
+25.0 +22.0 83 +32 +32 очень
душно
1012.8 1012.2 +28.4
18 17.10 СЗ 3 25 км 8/8 500 м
[Cu Sc]
+23.8 +21.9 89 +31 +31 очень
душно
1014.5 1013.9 +28.4
21 17.10 Ю 1 25 км 4/4 500 м
[Cu Sc]
+23.8 +23.6 99 +32 +32 очень
душно
1014.9 1014.2
00 18.10 штиль 0 25 км 9/9 500 м
[Cu Sc]
+23.0 +22.4 96 +31 +31 очень
душно
1012.9 1012.2
03 18.10 штиль 0 30 км 8/8 500 м
[Cu Sc Ci sp]
+22.3 +21.5 95 +29 +29 очень
душно
1013.3 1012.7
06 18.10 С 5 30 км 8/8 500 м
[Cu Sc Ci sp]
+26.2 +21.7 76 +34 +35 очень
душно
1014.0 1013.3 +21.5 +28.4
09 18.10 С 7 30 км 6/6 500 м
[Cu Sc]
+28.0 +22.9 74 +37 +40 очень
душно
1012.4 1011.8
12 18.10 С 7 20 км осадки на расстоянии 8/4 500 м
[Cb cap Ci ing]
+26.7 +23.1 81 +36 +37 очень
душно
1010.3 1009.7
15 18.10 С 7 15 км осадки на расстоянии 9/6 500 м
[Cb cap Ci ing]
+25.4 +23.2 88 +34 +34 очень
душно
1010.8 1010.1 +28.7
18 18.10 С 4 15 км осадки на расстоянии 9/9 500 м
[Cu Sc]
+25.2 +22.9 87 +33 +33 очень
душно
1013.5 1012.8 +28.7
21 18.10 штиль 0 9000 м гроза без осадков {дождь} 9/9 500 м
[Cb cap]
+23.8 +22.9 95 +32 +32 очень
душно
1012.8 1012.2 0.8
00 19.10 СЗ 3 10 км осадки на расстоянии {гроза, дождь} 9/9 500 м
[Cu Sc]
+23.5 +22.5 94 +31 +31 очень
душно
1011.0 1011.4 0.8
03 19.10 СЗ 2 30 км 8/6 500 м
[Cu Sc Ac trans]
+23.5 +22.2 92 +30 +31 очень
душно
1012.0 1011.3 0.8
06 19.10 С 5 30 км 5/4 500 м
[Cu Sc Ac trans]
+27.5 +23.1 77 +37 +41 очень
душно
1013.7 1013.1 +22.8 +28.7 0.8

 

Местоположение метеостанции Toamasina (Мадагаскар): широта -18.11 долгота 49.40 высота над уровнем моря 6 м.

В архиве по умолчанию представлена погода в Toamasina за последнюю неделю. Архивные данные за месяц целиком и за предыдущие месяцы, начиная с января 2011 года, Вы можете получить, выбрав интересующий диапазон дат из раскрывающегося списка и нажав кнопку "Ввод!".


*Определитесь, кто Вы:
робот инопланетянин человек

Внимание! Время в таблицах - всемирное. Для получения местного времени необходимо прибавить поправку, которая в Toamasina равна 3 ч.

Смотрите также архив погоды в соседних городах и на ближайших метеорологических станциях:

Погода в Ambohitsilaozana (Мадагаскар) (109 км)
Погода в Nosy Boraha (Мадагаскар) (123 км)
Погода в Mahanoro (Мадагаскар) (201 км)
Погода в Antananarivo Airport (Мадагаскар) (217 км)
Погода в Antananarivo (Мадагаскар) (218 км)
Погода в Antsirabe (Мадагаскар) (310 км)
Погода в Antalaha (Мадагаскар) (371 км)
Погода в Antsohihy (Мадагаскар) (390 км)
Погода в Mananjary (Мадагаскар) (403 км)
Погода в Mahajanga (Мадагаскар) (424 км)

Пояснения к столбцам:

Ветер - указаны скорость ветра в м/с - средняя за 10 мин, порывы в срок и между сроками (в фигурных скобках) и направление, откуда дует ветер: С - северный, СВ - северо-восточный, В - восточный, ЮВ - юго-восточный, Ю - южный, ЮЗ - юго-западный, З - западный, СЗ - северо-западный.
Видимость - горизонтальная дальность видимости в метрах или километрах. При видимости от 1 до 10 км при отсутствии осадков обычно наблюдается дымка, при ухудшении видимости до 1 км и менее - туман. В сухую погоду видимость может ухудшаться дымом, пылью или мглою.
Явления - указаны атмосферные явления, наблюдавшиеся в срок или в последний час перед сроком; фигурными скобками обозначены явления, наблюдавшиеся между сроками (за 1-3 часа до срока); квадратными скобками обозначены град или гололедные отложения с указанием их диаметра в мм.
Облачность - указаны через наклонную черту общая и нижняя облачность в баллах и высота нижней границы облаков в метрах; квадратными скобками обозначены формы облаков: Ci - перистые, Cs - перисто-слоистые, Cc - перисто-кучевые, Ac - высококучевые, As - высокослоистые, Sc - слоисто-кучевые, Ns - слоисто-дождевые, Cu - кучевые, Cb - кучево-дождевые. Подробнее классификацию облаков см. в Атласе облаков (PDF).
T - Температура воздуха - температура, измеренная на высоте 2 м над землей.
Td - Температура точки росы - температура, при понижении до которой содержащийся в воздухе водяной пар достигнет насыщения.
f - Относительная влажность воздуха - влажноcть воздуха, измеренная на высоте 2 м над землей.
Te - Эффективная температура - температура, которую ощущает одетый по сезону человек в тени. Характеристика душности погоды. При расчете учитывается влияние влажности воздуха и скорости ветра на теплоощущения человека.
Tes - Эффективная температура на солнце - температура, которую ощущает человек, с поправкой на солнечный нагрев. Характеристика знойности погоды. Зависит от высоты солнца над горизонтом, облачности и скорости ветра. Ночью, в пасмурную погоду, а также при ветре 12 м/с и более поправка равна нулю.
P - Атмосферное давление - приведенное к уровню моря атмосферное давление.
Po - Атмосферное давление - измеренное на уровне метеостанции атмосферное давление.
Tmin - Минимальная температура - минимум температуры воздуха на высоте 2 м над землей.
Tmax - Максимальная температура - максимум температуры воздуха на высоте 2 м над землей.
R - Количество осадков - Количество выпавших осадков за период времени, мм. При наведении курсора мыши на число - период времени, за который выпало указанное количество осадков.
R24 - Количество осадков - Количество выпавших осадков за 24 часа, мм.
S - Снежный покров - Высота снежного покрова, см. При наведении курсора мыши на число - состояние снежного покрова и степень покрытия местности в баллах.